| time (UTC) | temp F | wind direction | speed MPH | gust MPH | rain 1hr in | rain 24hr in | rain mn in | humidity % | barometer mb |
| 20260905115039 | 65 | 63 | 0.0 | 1.0 | 0.00 | 0.00 | 0.00 | 91 | 1013.4 |
| 20260905114553 | 65 | 55 | 0.0 | 0.0 | 0.00 | 0.00 | 0.00 | 91 | 1013.6 |
| 20260905114056 | 65 | 55 | 0.0 | 1.0 | 0.00 | 0.00 | 0.00 | 91 | 1013.6 |
| 20260905113542 | 65 | 55 | 0.0 | 1.0 | 0.00 | 0.00 | 0.00 | 91 | 1013.7 |
| 20260905113043 | 65 | 55 | 0.0 | 1.0 | 0.00 | 0.00 | 0.00 | 91 | 1013.6 |
| 20260905112523 | 65 | 55 | 0.0 | 0.0 | 0.00 | 0.00 | 0.00 | 91 | 1013.6 |
| 20260905112036 | 65 | 55 | 0.0 | 0.0 | 0.00 | 0.00 | 0.00 | 91 | 1013.5 |
| 20260905111543 | 65 | 55 | 0.0 | 1.0 | 0.00 | 0.00 | 0.00 | 91 | 1013.4 |
| 20260905111045 | 65 | 55 | 0.0 | 1.0 | 0.00 | 0.00 | 0.00 | 91 | 1013.4 |
| 20260905110549 | 65 | 55 | 0.0 | 0.0 | 0.00 | 0.00 | 0.00 | 91 | 1013.7 |
| 20260905110101 | 65 | 55 | 0.0 | 0.0 | 0.00 | 0.00 | 0.00 | 91 | 1013.9 |
| 20260905105503 | 65 | 55 | 0.0 | 0.0 | 0.00 | 0.00 | 0.00 | 90 | 1013.8 |
| 20260905105003 | 65 | 55 | 0.0 | 0.0 | 0.00 | 0.00 | 0.00 | 90 | 1013.6 |
| 20260905104552 | 65 | 55 | 0.0 | 0.0 | 0.00 | 0.00 | 0.00 | 90 | 1013.4 |
| 20260905104041 | 65 | 55 | 0.0 | 0.0 | 0.00 | 0.00 | 0.00 | 90 | 1013.4 |
| 20260905103547 | 65 | 55 | 0.0 | 0.0 | 0.00 | 0.00 | 0.00 | 90 | 1013.2 |
| 20260905103053 | 65 | 55 | 0.0 | 0.0 | 0.00 | 0.00 | 0.00 | 90 | 1013.0 |
| 20260905102600 | 65 | 55 | 0.0 | 1.0 | 0.00 | 0.00 | 0.00 | 90 | 1012.9 |
| 20260905102501 | 65 | 55 | 0.0 | 1.0 | 0.00 | 0.00 | 0.00 | 90 | 1012.9 |
| 20260905102032 | 65 | 55 | 0.0 | 2.0 | 0.00 | 0.00 | 0.00 | 89 | 1012.8 |
| 20260905101539 | 65 | 55 | 0.0 | 2.0 | 0.00 | 0.00 | 0.00 | 89 | 1012.7 |
| 20260905101050 | 65 | 55 | 0.0 | 1.0 | 0.00 | 0.00 | 0.00 | 89 | 1012.7 |
| 20260905100558 | 65 | 55 | 0.0 | 0.0 | 0.00 | 0.00 | 0.00 | 89 | 1012.6 |
| 20260905100006 | 65 | 55 | 0.0 | 0.0 | 0.00 | 0.00 | 0.00 | 89 | 1012.7 |
| 20260905095551 | 66 | 55 | 0.0 | 1.0 | 0.00 | 0.00 | 0.00 | 89 | 1012.6 |
| 20260905095055 | 66 | 55 | 0.0 | 1.0 | 0.00 | 0.00 | 0.00 | 89 | 1012.5 |
| 20260905094558 | 66 | 55 | 0.0 | 1.0 | 0.00 | 0.00 | 0.00 | 89 | 1012.6 |
| 20260905094056 | 66 | 55 | 0.0 | 1.0 | 0.00 | 0.00 | 0.00 | 89 | 1012.5 |
| 20260905093558 | 66 | 55 | 0.0 | 1.0 | 0.00 | 0.00 | 0.00 | 90 | 1012.3 |
| 20260905093501 | 66 | 55 | 0.0 | 1.0 | 0.00 | 0.00 | 0.00 | 90 | 1012.4 |
| 20260905093007 | 66 | 55 | 0.0 | 2.0 | 0.00 | 0.00 | 0.00 | 90 | 1012.5 |
| 20260905092525 | 66 | 55 | 0.0 | 2.0 | 0.00 | 0.00 | 0.00 | 90 | 1012.3 |
| 20260905092028 | 66 | 81 | 0.0 | 2.0 | 0.00 | 0.00 | 0.00 | 91 | 1012.3 |
| 20260905091537 | 66 | 88 | 0.0 | 2.0 | 0.00 | 0.00 | 0.00 | 91 | 1012.4 |
| 20260905091043 | 66 | 77 | 0.0 | 1.0 | 0.00 | 0.00 | 0.00 | 91 | 1012.5 |
| 20260905090548 | 66 | 78 | 0.0 | 1.0 | 0.00 | 0.00 | 0.00 | 91 | 1012.5 |
| 20260905090051 | 66 | 78 | 0.0 | 2.0 | 0.00 | 0.00 | 0.00 | 91 | 1012.5 |
| 20260905085556 | 67 | 78 | 0.0 | 0.0 | 0.00 | 0.00 | 0.00 | 92 | 1012.5 |
| 20260905085003 | 67 | 337 | 0.0 | 0.0 | 0.00 | 0.00 | 0.00 | 92 | 1012.6 |
| 20260905084517 | 67 | 337 | 0.0 | 0.0 | 0.00 | 0.00 | 0.00 | 92 | 1012.6 |
| 20260905084101 | 67 | 337 | 0.0 | 0.0 | 0.00 | 0.00 | 0.00 | 92 | 1012.6 |
| 20260905083555 | 67 | 337 | 0.0 | 0.0 | 0.00 | 0.00 | 0.00 | 92 | 1012.5 |
| 20260905083003 | 67 | 337 | 0.0 | 0.0 | 0.00 | 0.00 | 0.00 | 92 | 1012.5 |
| 20260905082514 | 67 | 337 | 0.0 | 0.0 | 0.00 | 0.00 | 0.00 | 92 | 1012.4 |
| 20260905082026 | 67 | 337 | 0.0 | 0.0 | 0.00 | 0.00 | 0.00 | 92 | 1012.3 |
| 20260905081538 | 67 | 337 | 0.0 | 0.0 | 0.00 | 0.00 | 0.00 | 92 | 1012.3 |
| 20260905081029 | 67 | 337 | 0.0 | 0.0 | 0.00 | 0.00 | 0.00 | 92 | 1012.1 |
| 20260905080534 | 67 | 337 | 0.0 | 0.0 | 0.00 | 0.00 | 0.00 | 92 | 1012.0 |
| 20260905080054 | 67 | 337 | 0.0 | 0.0 | 0.00 | 0.00 | 0.00 | 92 | 1012.1 |
| 20260905075530 | 67 | 337 | 0.0 | 0.0 | 0.00 | 0.00 | 0.00 | 93 | 1012.1 |
| 20260905075043 | 67 | 337 | 0.0 | 0.0 | 0.00 | 0.00 | 0.00 | 92 | 1012.1 |
| 20260905074551 | 67 | 337 | 0.0 | 0.0 | 0.00 | 0.00 | 0.00 | 92 | 1012.0 |
| 20260905074053 | 67 | 337 | 0.0 | 0.0 | 0.00 | 0.00 | 0.00 | 93 | 1012.2 |
| 20260905073558 | 67 | 337 | 0.0 | 0.0 | 0.00 | 0.00 | 0.00 | 93 | 1012.1 |
| 20260905073045 | 67 | 337 | 0.0 | 0.0 | 0.00 | 0.00 | 0.00 | 93 | 1012.1 |
| 20260905072516 | 67 | 337 | 0.0 | 0.0 | 0.00 | 0.00 | 0.00 | 93 | 1012.3 |
| 20260905072007 | 67 | 337 | 0.0 | 0.0 | 0.00 | 0.00 | 0.00 | 93 | 1012.3 |
| 20260905071523 | 67 | 337 | 0.0 | 0.0 | 0.00 | 0.00 | 0.00 | 93 | 1012.3 |
| 20260905071029 | 67 | 337 | 0.0 | 0.0 | 0.00 | 0.00 | 0.00 | 93 | 1012.5 |
| 20260905070532 | 67 | 337 | 0.0 | 0.0 | 0.00 | 0.00 | 0.00 | 93 | 1012.5 |
| 20260905070047 | 67 | 337 | 0.0 | 0.0 | 0.00 | 0.00 | 0.00 | 93 | 1012.6 |
| 20260905065551 | 67 | 337 | 0.0 | 0.0 | 0.00 | 0.00 | 0.00 | 93 | 1012.7 |
| 20260905065052 | 67 | 337 | 0.0 | 0.0 | 0.00 | 0.00 | 0.00 | 93 | 1012.8 |
| 20260905064600 | 67 | 337 | 0.0 | 0.0 | 0.00 | 0.00 | 0.00 | 93 | 1012.8 |
| 20260905064039 | 67 | 337 | 0.0 | 0.0 | 0.00 | 0.00 | 0.00 | 93 | 1012.7 |
| 20260905063546 | 67 | 337 | 0.0 | 0.0 | 0.00 | 0.00 | 0.00 | 93 | 1012.8 |
| 20260905063118 | 67 | 337 | 0.0 | 0.0 | 0.00 | 0.00 | 0.00 | 93 | 1012.8 |
| 20260905062507 | 67 | 337 | 0.0 | 0.0 | 0.00 | 0.00 | 0.00 | 93 | 1012.8 |
| 20260905062020 | 68 | 337 | 0.0 | 0.0 | 0.00 | 0.00 | 0.00 | 93 | 1012.8 |
| 20260905061529 | 68 | 337 | 0.0 | 0.0 | 0.00 | 0.00 | 0.00 | 93 | 1012.8 |
| 20260905061016 | 68 | 337 | 0.0 | 0.0 | 0.00 | 0.00 | 0.00 | 93 | 1012.8 |
| 20260905060514 | 68 | 337 | 0.0 | 0.0 | 0.00 | 0.00 | 0.00 | 93 | 1012.9 |
| 20260905060056 | 68 | 337 | 0.0 | 0.0 | 0.00 | 0.01 | 0.00 | 93 | 1012.9 |
| 20260905055504 | 68 | 337 | 0.0 | 0.0 | 0.00 | 0.01 | 0.00 | 93 | 1012.9 |
| 20260905055056 | 68 | 337 | 0.0 | 0.0 | 0.00 | 0.01 | 0.00 | 93 | 1012.8 |
| 20260905054507 | 68 | 337 | 0.0 | 0.0 | 0.00 | 0.01 | 0.00 | 93 | 1012.9 |
| 20260905054052 | 68 | 336 | 0.0 | 0.0 | 0.00 | 0.01 | 0.00 | 93 | 1012.9 |
| 20260905053554 | 68 | 337 | 0.0 | 0.0 | 0.00 | 0.01 | 0.00 | 93 | 1012.9 |
| 20260905053042 | 68 | 337 | 0.0 | 0.0 | 0.00 | 0.01 | 0.00 | 93 | 1012.9 |
| 20260905052524 | 68 | 337 | 0.0 | 0.0 | 0.00 | 0.01 | 0.00 | 93 | 1013.0 |
| 20260905052034 | 68 | 337 | 0.0 | 0.0 | 0.00 | 0.01 | 0.00 | 93 | 1013.1 |
| 20260905051543 | 68 | 337 | 0.0 | 0.0 | 0.00 | 0.01 | 0.00 | 93 | 1013.2 |
| 20260905051044 | 68 | 337 | 0.0 | 0.0 | 0.00 | 0.01 | 0.00 | 93 | 1013.2 |
| 20260905050552 | 68 | 337 | 0.0 | 0.0 | 0.00 | 0.01 | 0.00 | 93 | 1013.2 |
| 20260905050058 | 68 | 337 | 0.0 | 0.0 | 0.00 | 0.01 | 0.00 | 93 | 1013.2 |
| 20260905045507 | 68 | 337 | 0.0 | 0.0 | 0.00 | 0.01 | 0.00 | 93 | 1013.3 |
| 20260905045052 | 68 | 337 | 0.0 | 0.0 | 0.00 | 0.01 | 0.00 | 93 | 1013.3 |
| 20260905044555 | 68 | 337 | 0.0 | 0.0 | 0.00 | 0.01 | 0.00 | 93 | 1013.2 |
| 20260905044058 | 68 | 337 | 0.0 | 0.0 | 0.00 | 0.01 | 0.00 | 93 | 1013.2 |
| 20260905043506 | 69 | 337 | 0.0 | 0.0 | 0.00 | 0.01 | 0.00 | 93 | 1013.3 |
| 20260905043111 | 69 | 337 | 0.0 | 0.0 | 0.00 | 0.01 | 0.00 | 93 | 1013.3 |
| 20260905042559 | 69 | 337 | 0.0 | 0.0 | 0.00 | 0.01 | 0.00 | 93 | 1013.2 |
| 20260905042052 | 69 | 337 | 0.0 | 0.0 | 0.00 | 0.01 | 0.00 | 93 | 1013.3 |
| 20260905041558 | 69 | 337 | 0.0 | 0.0 | 0.00 | 0.01 | 0.00 | 93 | 1013.2 |
| 20260905041003 | 69 | 337 | 0.0 | 0.0 | 0.00 | 0.01 | 0.00 | 93 | 1013.2 |
| 20260905040520 | 69 | 337 | 0.0 | 0.0 | 0.00 | 0.01 | 0.00 | 93 | 1013.2 |
| 20260905040020 | 69 | 337 | 0.0 | 0.0 | 0.00 | 0.01 | 0.01 | 93 | 1013.3 |
| 20260905035527 | 69 | 337 | 0.0 | 0.0 | 0.00 | 0.01 | 0.01 | 93 | 1013.3 |
| 20260905035038 | 69 | 338 | 0.0 | 0.0 | 0.00 | 0.01 | 0.01 | 93 | 1013.2 |
| 20260905034543 | 69 | 338 | 0.0 | 0.0 | 0.00 | 0.01 | 0.01 | 93 | 1013.2 |
| 20260905034014 | 69 | 338 | 0.0 | 0.0 | 0.00 | 0.01 | 0.01 | 93 | 1013.2 |
| 20260905033530 | 69 | 338 | 0.0 | 0.0 | 0.00 | 0.01 | 0.01 | 93 | 1013.2 |
| 20260905033103 | 69 | 338 | 0.0 | 0.0 | 0.00 | 0.01 | 0.01 | 93 | 1013.3 |
| 20260905032548 | 69 | 338 | 0.0 | 0.0 | 0.00 | 0.01 | 0.01 | 93 | 1013.3 |
| 20260905032052 | 69 | 338 | 0.0 | 0.0 | 0.00 | 0.01 | 0.01 | 93 | 1013.2 |
| 20260905031503 | 69 | 338 | 0.0 | 0.0 | 0.00 | 0.01 | 0.01 | 92 | 1013.3 |
| 20260905031002 | 69 | 338 | 0.0 | 0.0 | 0.00 | 0.01 | 0.01 | 92 | 1013.2 |
| 20260905030551 | 69 | 338 | 0.0 | 0.0 | 0.00 | 0.01 | 0.01 | 92 | 1013.3 |
| 20260905030057 | 69 | 338 | 0.0 | 0.0 | 0.00 | 0.01 | 0.01 | 92 | 1013.3 |
| 20260905025506 | 69 | 338 | 0.0 | 0.0 | 0.00 | 0.01 | 0.01 | 92 | 1013.3 |
| 20260905025020 | 69 | 338 | 0.0 | 0.0 | 0.00 | 0.01 | 0.01 | 92 | 1013.2 |
| 20260905024527 | 69 | 338 | 0.0 | 0.0 | 0.00 | 0.01 | 0.01 | 92 | 1013.3 |
| 20260905024036 | 69 | 338 | 0.0 | 0.0 | 0.00 | 0.01 | 0.01 | 92 | 1013.3 |
| 20260905023545 | 69 | 338 | 0.0 | 0.0 | 0.00 | 0.01 | 0.01 | 92 | 1013.4 |
| 20260905023053 | 69 | 338 | 0.0 | 0.0 | 0.00 | 0.01 | 0.01 | 92 | 1013.4 |
| 20260905022548 | 69 | 338 | 0.0 | 0.0 | 0.00 | 0.01 | 0.01 | 92 | 1013.4 |
| 20260905022056 | 69 | 338 | 0.0 | 0.0 | 0.00 | 0.01 | 0.01 | 92 | 1013.4 |
| 20260905021507 | 69 | 338 | 0.0 | 0.0 | 0.00 | 0.01 | 0.01 | 92 | 1013.3 |
| 20260905021016 | 69 | 338 | 0.0 | 0.0 | 0.00 | 0.01 | 0.01 | 92 | 1013.2 |
| 20260905020518 | 69 | 338 | 0.0 | 0.0 | 0.00 | 0.01 | 0.01 | 92 | 1013.3 |
| 20260905020031 | 69 | 338 | 0.0 | 0.0 | 0.00 | 0.01 | 0.01 | 92 | 1013.3 |
| 20260905015540 | 69 | 338 | 0.0 | 0.0 | 0.00 | 0.01 | 0.01 | 92 | 1013.2 |
| 20260905015051 | 69 | 338 | 0.0 | 0.0 | 0.00 | 0.01 | 0.01 | 92 | 1013.2 |
| 20260905014554 | 69 | 338 | 0.0 | 0.0 | 0.00 | 0.01 | 0.01 | 92 | 1013.2 |
| 20260905014025 | 69 | 337 | 0.0 | 0.0 | 0.00 | 0.01 | 0.01 | 92 | 1013.2 |
| 20260905013528 | 69 | 337 | 0.0 | 0.0 | 0.00 | 0.01 | 0.01 | 92 | 1013.2 |
| 20260905013032 | 69 | 337 | 0.0 | 0.0 | 0.00 | 0.01 | 0.01 | 92 | 1013.2 |
| 20260905012540 | 69 | 337 | 0.0 | 0.0 | 0.00 | 0.01 | 0.01 | 92 | 1013.2 |
| 20260905012051 | 70 | 337 | 0.0 | 0.0 | 0.00 | 0.01 | 0.01 | 92 | 1013.1 |
| 20260905011556 | 70 | 337 | 0.0 | 0.0 | 0.00 | 0.01 | 0.01 | 91 | 1013.1 |
| 20260905011016 | 70 | 337 | 0.0 | 0.0 | 0.00 | 0.01 | 0.01 | 91 | 1013.0 |
| 20260905010519 | 70 | 337 | 0.0 | 0.0 | 0.00 | 0.01 | 0.01 | 91 | 1013.1 |
| 20260905010031 | 70 | 337 | 0.0 | 1.0 | 0.00 | 0.03 | 0.01 | 91 | 1013.1 |
| 20260905005538 | 70 | 337 | 0.0 | 1.0 | 0.00 | 0.03 | 0.01 | 91 | 1013.1 |
| 20260905005051 | 70 | 336 | 0.0 | 1.0 | 0.00 | 0.03 | 0.01 | 91 | 1013.1 |
| 20260905004610 | 70 | 337 | 0.0 | 0.0 | 0.00 | 0.03 | 0.01 | 91 | 1013.0 |
| 20260905004004 | 70 | 337 | 0.0 | 0.0 | 0.00 | 0.03 | 0.01 | 90 | 1013.1 |
| 20260905003522 | 70 | 337 | 0.0 | 0.0 | 0.00 | 0.03 | 0.01 | 90 | 1013.2 |
| 20260905003027 | 71 | 337 | 0.0 | 0.0 | 0.00 | 0.03 | 0.01 | 90 | 1013.1 |
| 20260905002538 | 71 | 337 | 0.0 | 0.0 | 0.00 | 0.03 | 0.01 | 90 | 1013.1 |
| 20260905002046 | 71 | 337 | 0.0 | 0.0 | 0.00 | 0.03 | 0.01 | 90 | 1013.2 |
| 20260905001550 | 71 | 337 | 0.0 | 0.0 | 0.00 | 0.03 | 0.01 | 90 | 1013.2 |
| 20260905001044 | 71 | 337 | 0.0 | 0.0 | 0.00 | 0.03 | 0.01 | 89 | 1013.3 |
| 20260905000552 | 71 | 337 | 0.0 | 0.0 | 0.00 | 0.03 | 0.01 | 89 | 1013.3 |
| 20260905000047 | 71 | 337 | 0.0 | 0.0 | 0.00 | 0.20 | 0.01 | 89 | 1013.4 |
| 20260904235527 | 71 | 337 | 0.0 | 0.0 | 0.00 | 0.20 | 0.01 | 88 | 1013.4 |
| 20260904235002 | 71 | 337 | 0.0 | 0.0 | 0.00 | 0.20 | 0.01 | 89 | 1013.4 |
| 20260904234555 | 71 | 337 | 0.0 | 0.0 | 0.00 | 0.20 | 0.01 | 89 | 1013.5 |
| 20260904234103 | 71 | 337 | 0.0 | 0.0 | 0.00 | 0.20 | 0.01 | 88 | 1013.4 |
| 20260904233548 | 71 | 337 | 0.0 | 0.0 | 0.00 | 0.20 | 0.01 | 88 | 1013.4 |
| 20260904233053 | 71 | 337 | 0.0 | 0.0 | 0.00 | 0.20 | 0.01 | 88 | 1013.3 |
| 20260904232539 | 71 | 337 | 0.0 | 0.0 | 0.00 | 0.20 | 0.01 | 88 | 1013.2 |
| 20260904232045 | 72 | 337 | 0.0 | 0.0 | 0.00 | 0.20 | 0.01 | 87 | 1013.2 |
| 20260904231533 | 72 | 337 | 0.0 | 0.0 | 0.00 | 0.20 | 0.01 | 87 | 1013.2 |
| 20260904231044 | 72 | 337 | 0.0 | 0.0 | 0.00 | 0.20 | 0.01 | 86 | 1013.1 |
| 20260904230551 | 72 | 337 | 0.0 | 0.0 | 0.00 | 0.20 | 0.01 | 86 | 1013.0 |
| 20260904230108 | 72 | 337 | 0.0 | 0.0 | 0.00 | 0.21 | 0.01 | 86 | 1012.9 |
| 20260904225507 | 72 | 337 | 0.0 | 1.0 | 0.00 | 0.21 | 0.01 | 86 | 1013.0 |
| 20260904225010 | 72 | 337 | 0.0 | 1.0 | 0.00 | 0.21 | 0.01 | 86 | 1013.0 |
| 20260904224526 | 72 | 337 | 0.0 | 1.0 | 0.00 | 0.21 | 0.01 | 86 | 1012.9 |
| 20260904224102 | 72 | 337 | 0.0 | 0.0 | 0.00 | 0.21 | 0.01 | 86 | 1012.9 |
| 20260904223547 | 72 | 337 | 0.0 | 0.0 | 0.00 | 0.21 | 0.01 | 85 | 1012.9 |
| 20260904223055 | 72 | 337 | 0.0 | 0.0 | 0.00 | 0.21 | 0.01 | 85 | 1012.8 |
| 20260904222558 | 72 | 337 | 0.0 | 1.0 | 0.00 | 0.21 | 0.01 | 85 | 1012.7 |
| 20260904222006 | 72 | 337 | 0.0 | 1.0 | 0.00 | 0.21 | 0.01 | 84 | 1012.7 |
| 20260904221525 | 72 | 337 | 0.0 | 2.0 | 0.00 | 0.21 | 0.01 | 84 | 1012.7 |
| 20260904221024 | 72 | 337 | 0.0 | 2.0 | 0.00 | 0.21 | 0.01 | 84 | 1012.6 |
| 20260904220533 | 72 | 337 | 1.0 | 2.0 | 0.00 | 0.21 | 0.01 | 84 | 1012.8 |
| 20260904220100 | 72 | 337 | 0.0 | 2.0 | 0.00 | 0.21 | 0.01 | 84 | 1012.8 |
| 20260904215547 | 73 | 337 | 0.0 | 3.0 | 0.00 | 0.21 | 0.01 | 85 | 1012.6 |
| 20260904215029 | 73 | 336 | 1.0 | 3.0 | 0.00 | 0.21 | 0.01 | 84 | 1012.3 |
| 20260904214526 | 73 | 337 | 1.0 | 3.0 | 0.00 | 0.21 | 0.01 | 84 | 1012.1 |
| 20260904214028 | 73 | 337 | 0.0 | 4.0 | 0.00 | 0.21 | 0.01 | 85 | 1012.1 |
| 20260904213532 | 73 | 337 | 0.0 | 4.0 | 0.00 | 0.21 | 0.01 | 85 | 1012.2 |
| 20260904213026 | 73 | 336 | 1.0 | 2.0 | 0.00 | 0.21 | 0.01 | 86 | 1012.1 |
| 20260904212536 | 72 | 336 | 1.0 | 4.0 | 0.00 | 0.21 | 0.01 | 85 | 1012.1 |
| 20260904212051 | 73 | 337 | 2.0 | 5.0 | 0.00 | 0.21 | 0.01 | 85 | 1012.1 |
| 20260904211536 | 73 | 338 | 2.0 | 5.0 | 0.00 | 0.21 | 0.01 | 85 | 1012.0 |
| 20260904211042 | 73 | 348 | 1.0 | 5.0 | 0.00 | 0.21 | 0.01 | 85 | 1012.0 |
| 20260904210544 | 73 | 325 | 1.0 | 5.0 | 0.00 | 0.21 | 0.01 | 86 | 1012.1 |
| 20260904210054 | 73 | 329 | 2.0 | 5.0 | 0.00 | 0.21 | 0.01 | 85 | 1012.1 |
| 20260904205536 | 73 | 328 | 0.0 | 3.0 | 0.00 | 0.21 | 0.01 | 86 | 1012.2 |
| 20260904205043 | 73 | 328 | 0.0 | 4.0 | 0.00 | 0.21 | 0.01 | 86 | 1012.3 |
| 20260904204548 | 73 | 329 | 0.0 | 5.0 | 0.00 | 0.21 | 0.01 | 86 | 1012.2 |
| 20260904204059 | 73 | 328 | 1.0 | 5.0 | 0.00 | 0.21 | 0.01 | 87 | 1012.3 |
| 20260904203536 | 73 | 327 | 0.0 | 4.0 | 0.00 | 0.21 | 0.01 | 86 | 1012.4 |
| 20260904203053 | 73 | 325 | 1.0 | 4.0 | 0.00 | 0.21 | 0.01 | 87 | 1012.4 |
| 20260904202554 | 72 | 323 | 1.0 | 6.0 | 0.00 | 0.21 | 0.01 | 87 | 1012.6 |
| 20260904202044 | 73 | 322 | 2.0 | 6.0 | 0.00 | 0.21 | 0.01 | 86 | 1012.8 |
| 20260904201552 | 73 | 348 | 1.0 | 4.0 | 0.00 | 0.21 | 0.01 | 86 | 1012.7 |
| 20260904201040 | 73 | 348 | 1.0 | 4.0 | 0.00 | 0.21 | 0.01 | 85 | 1012.8 |
| 20260904200546 | 73 | 328 | 1.0 | 4.0 | 0.00 | 0.21 | 0.01 | 86 | 1013.0 |
| 20260904200053 | 73 | 327 | 2.0 | 4.0 | 0.00 | 0.21 | 0.01 | 85 | 1013.0 |
| 20260904195554 | 73 | 327 | 2.0 | 4.0 | 0.00 | 0.21 | 0.01 | 85 | 1013.0 |
| 20260904195003 | 74 | 327 | 2.0 | 5.0 | 0.00 | 0.21 | 0.01 | 85 | 1013.1 |
| 20260904194521 | 74 | 327 | 1.0 | 5.0 | 0.00 | 0.21 | 0.01 | 85 | 1013.1 |
| 20260904194028 | 74 | 328 | 2.0 | 6.0 | 0.00 | 0.21 | 0.01 | 84 | 1013.0 |
| 20260904193531 | 75 | 325 | 2.0 | 6.0 | 0.00 | 0.21 | 0.01 | 83 | 1013.0 |
| 20260904193034 | 75 | 321 | 1.0 | 5.0 | 0.00 | 0.21 | 0.01 | 84 | 1013.0 |
| 20260904192519 | 75 | 309 | 0.0 | 4.0 | 0.00 | 0.21 | 0.01 | 84 | 1013.1 |
| 20260904192031 | 74 | 256 | 1.0 | 4.0 | 0.00 | 0.21 | 0.01 | 84 | 1013.1 |
| 20260904191544 | 74 | 262 | 1.0 | 4.0 | 0.00 | 0.21 | 0.01 | 84 | 1013.2 |
| 20260904191042 | 74 | 265 | 2.0 | 4.0 | 0.00 | 0.21 | 0.01 | 84 | 1013.1 |
| 20260904190545 | 74 | 301 | 0.0 | 4.0 | 0.00 | 0.21 | 0.01 | 86 | 1013.2 |
| 20260904190040 | 73 | 276 | 1.0 | 4.0 | 0.00 | 0.21 | 0.01 | 87 | 1013.3 |
| 20260904185537 | 73 | 250 | 0.0 | 3.0 | 0.00 | 0.21 | 0.01 | 87 | 1013.4 |
| 20260904185024 | 73 | 249 | 1.0 | 3.0 | 0.00 | 0.21 | 0.01 | 88 | 1013.6 |
| 20260904184531 | 73 | 250 | 0.0 | 2.0 | 0.00 | 0.21 | 0.01 | 88 | 1013.7 |
| 20260904184036 | 72 | 250 | 0.0 | 4.0 | 0.00 | 0.21 | 0.01 | 88 | 1013.7 |
| 20260904183539 | 72 | 250 | 2.0 | 4.0 | 0.00 | 0.21 | 0.01 | 88 | 1013.9 |
| 20260904183053 | 72 | 252 | 2.0 | 4.0 | 0.00 | 0.21 | 0.01 | 88 | 1014.0 |
| 20260904182557 | 72 | 257 | 1.0 | 4.0 | 0.00 | 0.21 | 0.01 | 88 | 1014.2 |
| 20260904182057 | 72 | 256 | 1.0 | 4.0 | 0.00 | 0.21 | 0.01 | 88 | 1014.2 |
| 20260904181503 | 72 | 257 | 2.0 | 6.0 | 0.00 | 0.21 | 0.01 | 88 | 1014.4 |
| 20260904181008 | 72 | 360 | 2.0 | 4.0 | 0.00 | 0.21 | 0.01 | 88 | 1014.4 |
| 20260904180514 | 72 | 360 | 2.0 | 4.0 | 0.00 | 0.21 | 0.01 | 88 | 1014.5 |
| 20260904180022 | 72 | 242 | 1.0 | 5.0 | 0.00 | 0.21 | 0.01 | 88 | 1014.4 |
| 20260904175525 | 72 | 240 | 2.0 | 5.0 | 0.00 | 0.21 | 0.01 | 88 | 1014.5 |
| 20260904175006 | 72 | 234 | 1.0 | 7.0 | 0.00 | 0.21 | 0.01 | 88 | 1014.6 |
| 20260904174510 | 72 | 238 | 2.0 | 8.0 | 0.00 | 0.21 | 0.01 | 88 | 1014.7 |
| 20260904174022 | 72 | 236 | 3.0 | 8.0 | 0.00 | 0.21 | 0.01 | 88 | 1014.6 |
| 20260904173529 | 72 | 232 | 2.0 | 5.0 | 0.00 | 0.21 | 0.01 | 88 | 1014.7 |
| 20260904173035 | 72 | 309 | 1.0 | 5.0 | 0.00 | 0.21 | 0.01 | 88 | 1014.6 |
| 20260904172512 | 72 | 244 | 2.0 | 5.0 | 0.00 | 0.21 | 0.01 | 89 | 1014.7 |
| 20260904172024 | 71 | 360 | 2.0 | 4.0 | 0.00 | 0.21 | 0.01 | 89 | 1014.6 |
| 20260904171529 | 71 | 360 | 2.0 | 4.0 | 0.00 | 0.21 | 0.01 | 89 | 1014.7 |
| 20260904171051 | 71 | 360 | 1.0 | 5.0 | 0.00 | 0.21 | 0.01 | 89 | 1014.7 |
| 20260904170537 | 71 | 244 | 3.0 | 5.0 | 0.00 | 0.21 | 0.01 | 89 | 1014.9 |
| 20260904170028 | 71 | 360 | 2.0 | 5.0 | 0.00 | 0.21 | 0.01 | 89 | 1015.1 |
| 20260904165528 | 71 | 230 | 1.0 | 4.0 | 0.00 | 0.21 | 0.01 | 89 | 1015.2 |
| 20260904165016 | 71 | 360 | 2.0 | 5.0 | 0.00 | 0.21 | 0.01 | 89 | 1015.2 |
| 20260904164519 | 71 | 360 | 1.0 | 6.0 | 0.00 | 0.21 | 0.01 | 89 | 1015.2 |
| 20260904164019 | 71 | 229 | 2.0 | 8.0 | 0.00 | 0.21 | 0.01 | 89 | 1015.3 |
| 20260904163533 | 71 | 244 | 2.0 | 8.0 | 0.00 | 0.21 | 0.01 | 89 | 1015.4 |
| 20260904163039 | 71 | 234 | 4.0 | 8.0 | 0.00 | 0.21 | 0.01 | 88 | 1015.4 |
| 20260904162557 | 71 | 237 | 3.0 | 8.0 | 0.00 | 0.21 | 0.01 | 88 | 1015.3 |
| 20260904162103 | 72 | 360 | 1.0 | 4.0 | 0.00 | 0.21 | 0.01 | 88 | 1015.3 |
| 20260904161600 | 72 | 255 | 1.0 | 4.0 | 0.00 | 0.21 | 0.01 | 88 | 1015.3 |
| 20260904161058 | 72 | 30 | 0.0 | 4.0 | 0.00 | 0.21 | 0.01 | 89 | 1015.2 |
| 20260904160543 | 72 | 360 | 1.0 | 6.0 | 0.00 | 0.21 | 0.01 | 89 | 1015.2 |
| 20260904160018 | 72 | 257 | 2.0 | 6.0 | 0.00 | 0.21 | 0.01 | 89 | 1015.1 |
| 20260904155503 | 71 | 235 | 1.0 | 5.0 | 0.00 | 0.21 | 0.01 | 89 | 1015.2 |
| 20260904155019 | 71 | 242 | 1.0 | 8.0 | 0.00 | 0.21 | 0.01 | 89 | 1015.2 |
| 20260904154531 | 71 | 360 | 4.0 | 8.0 | 0.00 | 0.21 | 0.01 | 89 | 1015.2 |
| 20260904154027 | 72 | 236 | 2.0 | 7.0 | 0.00 | 0.21 | 0.01 | 89 | 1015.3 |
| 20260904153527 | 72 | 219 | 2.0 | 8.0 | 0.00 | 0.21 | 0.01 | 89 | 1015.2 |
| 20260904153030 | 72 | 223 | 0.0 | 8.0 | 0.00 | 0.21 | 0.01 | 89 | 1015.1 |
| 20260904152538 | 72 | 360 | 2.0 | 6.0 | 0.00 | 0.21 | 0.01 | 90 | 1015.1 |
| 20260904152047 | 72 | 360 | 1.0 | 6.0 | 0.00 | 0.21 | 0.01 | 89 | 1015.1 |
| 20260904151557 | 72 | 360 | 3.0 | 6.0 | 0.00 | 0.21 | 0.01 | 89 | 1015.0 |
| 20260904151043 | 72 | 233 | 3.0 | 6.0 | 0.00 | 0.21 | 0.01 | 90 | 1015.0 |
| 20260904150547 | 72 | 246 | 1.0 | 8.0 | 0.00 | 0.21 | 0.01 | 90 | 1014.8 |
| 20260904150057 | 72 | 237 | 2.0 | 8.0 | 0.00 | 0.21 | 0.01 | 90 | 1015.0 |
| 20260904145533 | 72 | 228 | 2.0 | 4.0 | 0.00 | 0.21 | 0.01 | 90 | 1014.9 |
| 20260904145043 | 72 | 360 | 1.0 | 5.0 | 0.00 | 0.21 | 0.01 | 91 | 1014.9 |
| 20260904144558 | 71 | 229 | 2.0 | 6.0 | 0.00 | 0.21 | 0.01 | 91 | 1014.8 |
| 20260904144051 | 71 | 360 | 1.0 | 6.0 | 0.00 | 0.21 | 0.01 | 91 | 1014.8 |
| 20260904143557 | 71 | 236 | 3.0 | 7.0 | 0.00 | 0.21 | 0.01 | 91 | 1014.7 |
| 20260904143502 | 71 | 360 | 3.0 | 7.0 | 0.00 | 0.21 | 0.01 | 91 | 1014.7 |
| 20260904143101 | 71 | 229 | 2.0 | 7.0 | 0.00 | 0.21 | 0.01 | 91 | 1014.6 |
| 20260904142505 | 71 | 224 | 2.0 | 5.0 | 0.00 | 0.21 | 0.01 | 91 | 1014.5 |
| 20260904142047 | 71 | 360 | 1.0 | 5.0 | 0.00 | 0.21 | 0.01 | 92 | 1014.5 |
| 20260904141553 | 71 | 360 | 2.0 | 4.0 | 0.00 | 0.21 | 0.01 | 92 | 1014.3 |
| 20260904141047 | 71 | 246 | 2.0 | 4.0 | 0.00 | 0.21 | 0.01 | 92 | 1014.2 |
| 20260904140529 | 71 | 256 | 1.0 | 5.0 | 0.00 | 0.21 | 0.01 | 93 | 1014.1 |
| 20260904140050 | 70 | 255 | 2.0 | 5.0 | 0.00 | 0.21 | 0.01 | 93 | 1014.0 |
| 20260904135542 | 70 | 254 | 1.0 | 5.0 | 0.00 | 0.21 | 0.01 | 94 | 1013.9 |
| 20260904135034 | 70 | 239 | 1.0 | 5.0 | 0.00 | 0.21 | 0.01 | 94 | 1014.0 |
| 20260904134521 | 70 | 243 | 2.0 | 5.0 | 0.00 | 0.21 | 0.01 | 94 | 1013.9 |
| 20260904134002 | 70 | 244 | 0.0 | 6.0 | 0.00 | 0.21 | 0.01 | 94 | 1013.9 |
| 20260904133511 | 70 | 228 | 1.0 | 6.0 | 0.00 | 0.21 | 0.01 | 94 | 1013.9 |
| 20260904133051 | 70 | 227 | 1.0 | 5.0 | 0.00 | 0.21 | 0.01 | 95 | 1014.1 |
| 20260904132600 | 70 | 236 | 0.0 | 3.0 | 0.00 | 0.21 | 0.01 | 95 | 1014.1 |
| 20260904132046 | 70 | 236 | 0.0 | 3.0 | 0.00 | 0.21 | 0.01 | 95 | 1014.1 |
| 20260904131551 | 69 | 236 | 0.0 | 3.0 | 0.00 | 0.21 | 0.01 | 95 | 1014.1 |
| 20260904131056 | 69 | 236 | 0.0 | 4.0 | 0.00 | 0.21 | 0.01 | 95 | 1014.3 |
| 20260904130515 | 69 | 236 | 1.0 | 4.0 | 0.00 | 0.21 | 0.01 | 95 | 1014.3 |
| 20260904130049 | 69 | 236 | 0.0 | 4.0 | 0.00 | 0.21 | 0.01 | 95 | 1014.5 |
| 20260904125555 | 69 | 236 | 1.0 | 4.0 | 0.00 | 0.21 | 0.01 | 95 | 1014.5 |
| 20260904125101 | 69 | 236 | 0.0 | 3.0 | 0.00 | 0.21 | 0.01 | 95 | 1014.7 |
| 20260904124510 | 69 | 236 | 1.0 | 3.0 | 0.00 | 0.21 | 0.01 | 95 | 1014.8 |
| 20260904124026 | 69 | 241 | 1.0 | 3.0 | 0.00 | 0.21 | 0.01 | 95 | 1014.6 |
| 20260904123529 | 69 | 241 | 0.0 | 4.0 | 0.00 | 0.21 | 0.01 | 95 | 1014.6 |
| 20260904123037 | 69 | 240 | 1.0 | 4.0 | 0.00 | 0.21 | 0.01 | 95 | 1014.6 |
| 20260904122539 | 69 | 238 | 2.0 | 4.0 | 0.00 | 0.21 | 0.01 | 95 | 1014.7 |
| 20260904122026 | 69 | 238 | 1.0 | 3.0 | 0.00 | 0.21 | 0.01 | 95 | 1014.6 |
| 20260904121532 | 69 | 237 | 1.0 | 3.0 | 0.00 | 0.21 | 0.01 | 95 | 1014.7 |
| 20260904121055 | 69 | 235 | 2.0 | 3.0 | 0.00 | 0.21 | 0.01 | 95 | 1014.8 |
| 20260904120538 | 69 | 239 | 2.0 | 3.0 | 0.00 | 0.21 | 0.01 | 95 | 1014.6 |
| 20260904120049 | 69 | 240 | 1.0 | 3.0 | 0.00 | 0.21 | 0.01 | 95 | 1014.6 |
| 20260904115522 | 69 | 239 | 1.0 | 3.0 | 0.00 | 0.21 | 0.01 | 95 | 1014.6 |